Starlink 30303

operational
NORAD ID: 57677 Int'l Des: 2023-124 Owner: SPXS Country: US Constellation: starlink
LEOCIRCULAR

Starlink 30303について

説明を読み込み中...

リアルタイム位置

3D地球を読み込み中...

次回通過

高度履歴

Altitude vs Time

uPlot chart will show altitude changes over time

軌道要素

1 57677U 23124Q 25353.88120757 -.00000081 00000-0 94059-5 0 9992
2 57677 53.1589 217.1836 0001333 90.0719 270.0434 15.30187395131354
Epoch: Dec 19, 2025 • Age: 14 hours

現在のステータス

高度 478.9 km
速度 7.63 km/s
衛星直下点 43.71°N, 2.21°W
打ち上げ日 Aug 22, 2023
運用期間 2.3 years
タイプ internet

技術仕様

分類 Payload
質量 730.00 kg
乾燥質量 700.00 kg
総質量 730.00 kg
長さ 0.30 m
直径 4.10 m
スパン 29.00 m
形状 Box + pan
製造者 SPXS
バスタイプ Starlink V2M
フェーズステータス In Orbit
所有者/国 SPXS/US

大規模コンステレーション

Loading constellations...